Location: Palmerston North
(40.3500°S, 175.6170°E)
Time: 06:22:48
(UTC+13:00)

Meteor 1-27 - Pass Details

Date: 24 January 2019
Orbit: 839 x 891 km, 81.2° (Epoch: 19 February)

Event Time Altitude Azimuth Distance (km) Brightness Sun altitude
Rises 21:02:59 0° 352° (N) 3,464 7.2 -4.1°
Reaches altitude 10° 21:05:24 10° 351° (N) 2,540 6.5 -4.5°
Maximum altitude 21:11:13 87° 260° (W) 904 4.4 -5.5°
Drops below altitude 10° 21:17:09 10° 171° (S) 2,592 7.1 -6.4°
Sets 21:19:38 0° 170° (S) 3,540 7.8 -6.8°
